| time (UTC) | temp C | wind direction | speed KPH | gust KPH | rain 1hr cm | rain 24hr cm | rain mn cm | humidity % | barometer mb |
| 20260831054206 | 28 | 91 | 1.6 | 9.7 | 0.00 | 0.00 | 0.00 | 35 | 1025.4 |
| 20260831053606 | 28 | 124 | 1.6 | 8.0 | 0.00 | 0.00 | 0.00 | 33 | 1025.4 |
| 20260831053006 | 28 | 93 | 1.6 | 8.0 | 0.00 | 0.00 | 0.00 | 31 | 1025.5 |
| 20260831052406 | 29 | 98 | 1.6 | 8.0 | 0.00 | 0.00 | 0.00 | 31 | 1025.5 |
| 20260831051206 | 28 | 108 | 1.6 | 12.9 | 0.00 | 0.00 | 0.00 | 31 | 1025.6 |
| 20260831050606 | 28 | 74 | 1.6 | 12.9 | 0.00 | 0.00 | 0.00 | 31 | 1025.7 |
| 20260831050006 | 28 | 42 | 3.2 | 6.4 | 0.00 | 0.00 | 0.00 | 31 | 1025.7 |
| 20260831045407 | 28 | 85 | 4.8 | 8.0 | 0.00 | 0.00 | 0.00 | 32 | 1025.7 |
| 20260831044806 | 28 | 95 | 3.2 | 14.5 | 0.00 | 0.00 | 0.00 | 33 | 1025.8 |
| 20260831044206 | 28 | 81 | 3.2 | 14.5 | 0.00 | 0.00 | 0.00 | 34 | 1025.9 |
| 20260831043606 | 28 | 85 | 4.8 | 8.0 | 0.00 | 0.00 | 0.00 | 34 | 1025.9 |
| 20260831043007 | 28 | 95 | 4.8 | 8.0 | 0.00 | 0.00 | 0.00 | 35 | 1025.9 |
| 20260831042406 | 28 | 90 | 4.8 | 9.7 | 0.00 | 0.00 | 0.00 | 34 | 1026.0 |
| 20260831041806 | 27 | 90 | 4.8 | 8.0 | 0.00 | 0.00 | 0.00 | 36 | 1026.0 |
| 20260831041205 | 27 | 109 | 3.2 | 8.0 | 0.00 | 0.00 | 0.00 | 36 | 1026.0 |
| 20260831040606 | 27 | 115 | 3.2 | 9.7 | 0.00 | 0.00 | 0.00 | 36 | 1026.1 |
| 20260831040006 | 27 | 109 | 3.2 | 8.0 | 0.00 | 0.00 | 0.00 | 36 | 1026.2 |
| 20260831035406 | 27 | 74 | 3.2 | 9.7 | 0.00 | 0.00 | 0.00 | 36 | 1026.2 |
| 20260831034806 | 27 | 75 | 3.2 | 9.7 | 0.00 | 0.00 | 0.00 | 37 | 1026.3 |
| 20260831033606 | 27 | 111 | 3.2 | 14.5 | 0.00 | 0.00 | 0.00 | 38 | 1026.4 |
| 20260831033006 | 26 | 102 | 3.2 | 12.9 | 0.00 | 0.00 | 0.00 | 39 | 1026.5 |
| 20260831031806 | 26 | 109 | 3.2 | 14.5 | 0.00 | 0.00 | 0.00 | 41 | 1026.7 |
| 20260831030606 | 26 | 332 | 1.6 | 8.0 | 0.00 | 0.00 | 0.00 | 40 | 1026.9 |
| 20260831030006 | 25 | 82 | 1.6 | 8.0 | 0.00 | 0.00 | 0.00 | 41 | 1026.9 |
| 20260831025405 | 25 | 92 | 3.2 | 8.0 | 0.00 | 0.00 | 0.00 | 43 | 1027.2 |
| 20260831024206 | 25 | 54 | 4.8 | 8.0 | 0.00 | 0.00 | 0.00 | 43 | 1027.3 |
| 20260831023605 | 24 | 71 | 3.2 | 8.0 | 0.00 | 0.00 | 0.00 | 43 | 1027.3 |
| 20260831022406 | 23 | 52 | 3.2 | 8.0 | 0.00 | 0.00 | 0.00 | 45 | 1027.6 |
| 20260831021805 | 23 | 95 | 3.2 | 8.0 | 0.00 | 0.00 | 0.00 | 47 | 1027.7 |
| 20260831021206 | 23 | 10 | 3.2 | 8.0 | 0.00 | 0.00 | 0.00 | 48 | 1027.8 |
| 20260831020606 | 22 | 36 | 3.2 | 12.9 | 0.00 | 0.00 | 0.00 | 48 | 1027.9 |
| 20260831020006 | 22 | 32 | 4.8 | 12.9 | 0.00 | 0.00 | 0.00 | 49 | 1028.0 |
| 20260831015406 | 22 | 316 | 4.8 | 8.0 | 0.00 | 0.05 | 0.00 | 49 | 1028.1 |
| 20260831014206 | 22 | 331 | 1.6 | 9.7 | 0.00 | 0.05 | 0.00 | 49 | 1028.3 |
| 20260831013606 | 22 | 359 | 3.2 | 8.0 | 0.00 | 0.05 | 0.00 | 50 | 1028.6 |
| 20260831013005 | 22 | 352 | 3.2 | 8.0 | 0.00 | 0.05 | 0.00 | 50 | 1028.7 |
| 20260831012407 | 22 | 22 | 1.6 | 8.0 | 0.00 | 0.05 | 0.00 | 50 | 1028.8 |
| 20260831011806 | 22 | 73 | 1.6 | 8.0 | 0.00 | 0.05 | 0.00 | 51 | 1029.0 |
| 20260831011205 | 21 | 101 | 1.6 | 6.4 | 0.00 | 0.05 | 0.00 | 52 | 1029.0 |
| 20260831010606 | 21 | 106 | 1.6 | 6.4 | 0.00 | 0.05 | 0.00 | 53 | 1029.1 |
| 20260831010006 | 21 | 68 | 0.0 | 6.4 | 0.00 | 0.05 | 0.00 | 53 | 1029.2 |
| 20260831004806 | 20 | 0 | 0.0 | 0.0 | 0.00 | 0.05 | 0.00 | 54 | 1029.3 |
| 20260831003606 | 20 | 89 | 1.6 | 4.8 | 0.00 | 0.05 | 0.00 | 56 | 1029.4 |
| 20260831003005 | 19 | 100 | 1.6 | 6.4 | 0.00 | 0.05 | 0.00 | 57 | 1029.5 |
| 20260831002405 | 18 | 95 | 0.0 | 6.4 | 0.00 | 0.05 | 0.00 | 59 | 1029.6 |
| 20260831001806 | 18 | 0 | 0.0 | 0.0 | 0.00 | 0.05 | 0.00 | 60 | 1029.6 |
| 20260831001206 | 17 | 0 | 0.0 | 0.0 | 0.00 | 0.05 | 0.00 | 60 | 1029.5 |
| 20260831000606 | 17 | 357 | 1.6 | 6.4 | 0.00 | 0.05 | 0.00 | 61 | 1029.5 |
| 20260831000006 | 17 | 324 | 1.6 | 6.4 | 0.00 | 0.05 | 0.00 | 62 | 1029.4 |
| 20260830233606 | 15 | 106 | 0.0 | 4.8 | 0.00 | 0.05 | 0.00 | 64 | 1029.6 |
| 20260830233005 | 15 | 0 | 0.0 | 0.0 | 0.00 | 0.05 | 0.00 | 65 | 1029.6 |
| 20260830231806 | 15 | 55 | 0.0 | 4.8 | 0.00 | 0.05 | 0.00 | 68 | 1029.7 |
| 20260830230606 | 13 | 349 | 0.0 | 4.8 | 0.00 | 0.05 | 0.00 | 71 | 1029.7 |
| 20260830230006 | 13 | 312 | 0.0 | 4.8 | 0.00 | 0.05 | 0.00 | 72 | 1029.7 |
| 20260830225405 | 13 | 0 | 0.0 | 0.0 | 0.00 | 0.05 | 0.00 | 73 | 1029.6 |
| 20260830224806 | 12 | 0 | 0.0 | 0.0 | 0.00 | 0.05 | 0.00 | 74 | 1029.7 |
| 20260830224205 | 12 | 34 | 0.0 | 1.6 | 0.00 | 0.05 | 0.00 | 76 | 1029.7 |
| 20260830223606 | 11 | 34 | 0.0 | 1.6 | 0.00 | 0.05 | 0.00 | 77 | 1029.7 |
| 20260830223006 | 11 | 0 | 0.0 | 0.0 | 0.00 | 0.05 | 0.00 | 78 | 1029.8 |
| 20260830222405 | 11 | 0 | 0.0 | 0.0 | 0.00 | 0.05 | 0.00 | 79 | 1029.8 |
| 20260830221806 | 10 | 0 | 0.0 | 0.0 | 0.00 | 0.05 | 0.00 | 80 | 1029.7 |
| 20260830221206 | 10 | 0 | 0.0 | 0.0 | 0.00 | 0.05 | 0.00 | 81 | 1029.8 |
| 20260830220005 | 9 | 0 | 0.0 | 0.0 | 0.00 | 0.05 | 0.00 | 82 | 1029.7 |
| 20260830214805 | 8 | 0 | 0.0 | 0.0 | 0.00 | 0.05 | 0.00 | 82 | 1029.5 |
| 20260830213606 | 8 | 0 | 0.0 | 0.0 | 0.00 | 0.05 | 0.00 | 81 | 1029.5 |
| 20260830213005 | 7 | 0 | 0.0 | 0.0 | 0.00 | 0.05 | 0.00 | 81 | 1029.4 |
| 20260830212406 | 7 | 0 | 0.0 | 0.0 | 0.00 | 0.05 | 0.00 | 81 | 1029.4 |
| 20260830211806 | 7 | 0 | 0.0 | 0.0 | 0.00 | 0.05 | 0.00 | 81 | 1029.5 |
| 20260830211205 | 7 | 0 | 0.0 | 0.0 | 0.00 | 0.05 | 0.00 | 81 | 1029.5 |
| 20260830210605 | 6 | 0 | 0.0 | 0.0 | 0.00 | 0.05 | 0.00 | 81 | 1029.4 |
| 20260830210006 | 6 | 0 | 0.0 | 0.0 | 0.00 | 0.05 | 0.00 | 80 | 1029.3 |
| 20260830205405 | 6 | 0 | 0.0 | 0.0 | 0.00 | 0.05 | 0.00 | 80 | 1029.3 |
| 20260830204806 | 6 | 0 | 0.0 | 0.0 | 0.00 | 0.05 | 0.00 | 80 | 1029.2 |
| 20260830204206 | 6 | 0 | 0.0 | 0.0 | 0.00 | 0.05 | 0.00 | 80 | 1029.1 |
| 20260830203605 | 6 | 0 | 0.0 | 0.0 | 0.00 | 0.05 | 0.00 | 80 | 1029.0 |
| 20260830203007 | 6 | 0 | 0.0 | 0.0 | 0.00 | 0.05 | 0.00 | 80 | 1028.9 |
| 20260830202405 | 6 | 0 | 0.0 | 0.0 | 0.00 | 0.05 | 0.00 | 80 | 1028.9 |
| 20260830201805 | 6 | 0 | 0.0 | 0.0 | 0.00 | 0.05 | 0.00 | 80 | 1028.9 |
| 20260830201206 | 6 | 0 | 0.0 | 0.0 | 0.00 | 0.05 | 0.00 | 80 | 1029.0 |
| 20260830200606 | 6 | 0 | 0.0 | 0.0 | 0.00 | 0.05 | 0.00 | 79 | 1029.0 |
| 20260830200005 | 6 | 0 | 0.0 | 0.0 | 0.00 | 0.05 | 0.00 | 79 | 1028.9 |
| 20260830195405 | 6 | 0 | 0.0 | 0.0 | 0.00 | 0.05 | 0.00 | 79 | 1028.8 |
| 20260830194806 | 6 | 0 | 0.0 | 0.0 | 0.00 | 0.05 | 0.00 | 79 | 1028.7 |
| 20260830194205 | 6 | 0 | 0.0 | 0.0 | 0.00 | 0.05 | 0.00 | 79 | 1028.6 |
| 20260830193605 | 7 | 0 | 0.0 | 0.0 | 0.00 | 0.05 | 0.00 | 79 | 1028.6 |
| 20260830193006 | 6 | 0 | 0.0 | 0.0 | 0.00 | 0.05 | 0.00 | 79 | 1028.4 |
| 20260830192406 | 6 | 0 | 0.0 | 0.0 | 0.00 | 0.05 | 0.00 | 79 | 1028.4 |
| 20260830191206 | 7 | 0 | 0.0 | 0.0 | 0.00 | 0.05 | 0.00 | 79 | 1028.2 |
| 20260830190606 | 7 | 0 | 0.0 | 0.0 | 0.00 | 0.05 | 0.00 | 79 | 1028.2 |
| 20260830190006 | 7 | 0 | 0.0 | 0.0 | 0.00 | 0.05 | 0.00 | 78 | 1028.1 |
| 20260830185406 | 7 | 0 | 0.0 | 0.0 | 0.00 | 0.05 | 0.00 | 78 | 1028.1 |
| 20260830184807 | 7 | 0 | 0.0 | 0.0 | 0.00 | 0.05 | 0.00 | 78 | 1028.1 |
| 20260830184205 | 7 | 0 | 0.0 | 0.0 | 0.00 | 0.05 | 0.00 | 78 | 1028.2 |
| 20260830183006 | 7 | 0 | 0.0 | 0.0 | 0.00 | 0.05 | 0.00 | 78 | 1028.3 |
| 20260830182406 | 7 | 0 | 0.0 | 0.0 | 0.00 | 0.05 | 0.00 | 77 | 1028.2 |
| 20260830181805 | 7 | 0 | 0.0 | 0.0 | 0.00 | 0.05 | 0.00 | 77 | 1028.3 |
| 20260830181205 | 7 | 0 | 0.0 | 0.0 | 0.00 | 0.05 | 0.00 | 78 | 1028.4 |
| 20260830180006 | 7 | 0 | 0.0 | 0.0 | 0.00 | 0.05 | 0.00 | 77 | 1028.4 |
| 20260830175406 | 7 | 0 | 0.0 | 0.0 | 0.00 | 0.05 | 0.00 | 77 | 1028.4 |
| 20260830174805 | 7 | 0 | 0.0 | 0.0 | 0.00 | 0.05 | 0.00 | 77 | 1028.4 |
| 20260830174206 | 8 | 0 | 0.0 | 0.0 | 0.00 | 0.05 | 0.00 | 77 | 1028.6 |
| 20260830173606 | 8 | 0 | 0.0 | 0.0 | 0.00 | 0.05 | 0.00 | 77 | 1028.5 |
| 20260830173005 | 8 | 0 | 0.0 | 0.0 | 0.00 | 0.05 | 0.00 | 77 | 1028.4 |
| 20260830171805 | 8 | 0 | 0.0 | 0.0 | 0.00 | 0.05 | 0.00 | 77 | 1028.6 |
| 20260830171205 | 8 | 0 | 0.0 | 0.0 | 0.00 | 0.05 | 0.00 | 77 | 1028.6 |
| 20260830170605 | 8 | 0 | 0.0 | 0.0 | 0.00 | 0.05 | 0.00 | 77 | 1028.5 |
| 20260830170006 | 8 | 0 | 0.0 | 0.0 | 0.00 | 0.05 | 0.00 | 77 | 1028.5 |
| 20260830165405 | 8 | 0 | 0.0 | 0.0 | 0.00 | 0.05 | 0.00 | 76 | 1028.8 |
| 20260830164805 | 8 | 0 | 0.0 | 0.0 | 0.00 | 0.05 | 0.00 | 76 | 1028.9 |
| 20260830164205 | 8 | 0 | 0.0 | 0.0 | 0.00 | 0.05 | 0.00 | 76 | 1028.9 |
| 20260830163606 | 8 | 0 | 0.0 | 0.0 | 0.00 | 0.05 | 0.00 | 76 | 1028.8 |
| 20260830163006 | 8 | 0 | 0.0 | 0.0 | 0.00 | 0.05 | 0.00 | 76 | 1028.8 |
| 20260830162405 | 8 | 0 | 0.0 | 0.0 | 0.00 | 0.05 | 0.00 | 76 | 1028.8 |
| 20260830161805 | 8 | 0 | 0.0 | 0.0 | 0.00 | 0.05 | 0.00 | 76 | 1028.9 |
| 20260830160605 | 8 | 0 | 0.0 | 0.0 | 0.00 | 0.05 | 0.00 | 76 | 1029.0 |
| 20260830160005 | 8 | 0 | 0.0 | 0.0 | 0.00 | 0.05 | 0.00 | 75 | 1028.9 |
| 20260830154805 | 8 | 0 | 0.0 | 0.0 | 0.00 | 0.05 | 0.00 | 75 | 1028.8 |
| 20260830154206 | 8 | 0 | 0.0 | 0.0 | 0.00 | 0.05 | 0.00 | 75 | 1028.9 |
| 20260830153605 | 9 | 0 | 0.0 | 0.0 | 0.00 | 0.05 | 0.00 | 75 | 1028.9 |
| 20260830153006 | 9 | 0 | 0.0 | 0.0 | 0.00 | 0.05 | 0.00 | 75 | 1028.9 |
| 20260830152406 | 9 | 0 | 0.0 | 0.0 | 0.00 | 0.05 | 0.00 | 74 | 1028.9 |
| 20260830151805 | 9 | 0 | 0.0 | 0.0 | 0.00 | 0.05 | 0.00 | 74 | 1028.9 |
| 20260830151205 | 9 | 0 | 0.0 | 0.0 | 0.00 | 0.05 | 0.00 | 74 | 1028.9 |
| 20260830150006 | 9 | 0 | 0.0 | 0.0 | 0.00 | 0.05 | 0.00 | 73 | 1028.9 |
| 20260830144805 | 9 | 0 | 0.0 | 0.0 | 0.00 | 0.05 | 0.00 | 73 | 1029.0 |
| 20260830144205 | 10 | 0 | 0.0 | 0.0 | 0.00 | 0.05 | 0.00 | 73 | 1029.0 |
| 20260830143605 | 10 | 0 | 0.0 | 0.0 | 0.00 | 0.05 | 0.00 | 73 | 1029.0 |
| 20260830143006 | 10 | 0 | 0.0 | 0.0 | 0.00 | 0.05 | 0.00 | 73 | 1029.0 |
| 20260830142405 | 10 | 0 | 0.0 | 0.0 | 0.00 | 0.05 | 0.00 | 73 | 1029.0 |
| 20260830141206 | 10 | 0 | 0.0 | 0.0 | 0.00 | 0.05 | 0.00 | 72 | 1029.0 |
| 20260830140605 | 10 | 0 | 0.0 | 0.0 | 0.00 | 0.05 | 0.00 | 72 | 1028.9 |
| 20260830140006 | 10 | 0 | 0.0 | 0.0 | 0.00 | 0.05 | 0.00 | 72 | 1028.9 |
| 20260830135405 | 10 | 0 | 0.0 | 0.0 | 0.00 | 0.05 | 0.05 | 72 | 1028.9 |
| 20260830134805 | 10 | 0 | 0.0 | 0.0 | 0.00 | 0.05 | 0.05 | 72 | 1028.9 |
| 20260830134205 | 10 | 0 | 0.0 | 0.0 | 0.00 | 0.05 | 0.05 | 71 | 1029.0 |
| 20260830133605 | 10 | 0 | 0.0 | 0.0 | 0.00 | 0.05 | 0.05 | 71 | 1029.1 |
| 20260830133005 | 10 | 0 | 0.0 | 0.0 | 0.00 | 0.05 | 0.05 | 71 | 1029.0 |
| 20260830132405 | 10 | 0 | 0.0 | 0.0 | 0.00 | 0.05 | 0.05 | 71 | 1029.0 |
| 20260830131805 | 10 | 0 | 0.0 | 0.0 | 0.00 | 0.05 | 0.05 | 71 | 1029.0 |
| 20260830131205 | 11 | 0 | 0.0 | 0.0 | 0.00 | 0.05 | 0.05 | 71 | 1029.0 |
| 20260830130605 | 11 | 0 | 0.0 | 0.0 | 0.00 | 0.05 | 0.05 | 70 | 1029.0 |
| 20260830130005 | 11 | 0 | 0.0 | 0.0 | 0.00 | 0.05 | 0.05 | 70 | 1028.8 |
| 20260830125405 | 11 | 0 | 0.0 | 0.0 | 0.00 | 0.05 | 0.05 | 70 | 1028.9 |
| 20260830124806 | 11 | 0 | 0.0 | 0.0 | 0.00 | 0.05 | 0.05 | 70 | 1028.9 |
| 20260830124206 | 11 | 0 | 0.0 | 0.0 | 0.00 | 0.05 | 0.05 | 69 | 1028.8 |
| 20260830123605 | 11 | 0 | 0.0 | 0.0 | 0.00 | 0.05 | 0.05 | 69 | 1028.8 |
| 20260830123005 | 11 | 0 | 0.0 | 0.0 | 0.00 | 0.05 | 0.05 | 68 | 1028.8 |
| 20260830122404 | 11 | 0 | 0.0 | 0.0 | 0.00 | 0.05 | 0.05 | 68 | 1028.8 |
| 20260830121805 | 11 | 0 | 0.0 | 0.0 | 0.00 | 0.05 | 0.05 | 67 | 1028.8 |
| 20260830121205 | 11 | 0 | 0.0 | 0.0 | 0.00 | 0.05 | 0.05 | 67 | 1028.7 |
| 20260830120005 | 12 | 0 | 0.0 | 0.0 | 0.00 | 0.05 | 0.05 | 67 | 1028.8 |
| 20260830115406 | 12 | 0 | 0.0 | 0.0 | 0.00 | 0.05 | 0.05 | 66 | 1028.8 |
| 20260830114806 | 12 | 0 | 0.0 | 0.0 | 0.00 | 0.05 | 0.05 | 66 | 1028.8 |
| 20260830114206 | 12 | 0 | 0.0 | 0.0 | 0.00 | 0.05 | 0.05 | 65 | 1028.7 |
| 20260830113605 | 12 | 0 | 0.0 | 0.0 | 0.00 | 0.05 | 0.05 | 65 | 1028.7 |
| 20260830112405 | 12 | 0 | 0.0 | 0.0 | 0.00 | 0.05 | 0.05 | 65 | 1028.5 |
| 20260830111205 | 13 | 0 | 0.0 | 0.0 | 0.00 | 0.05 | 0.05 | 64 | 1028.3 |
| 20260830110605 | 13 | 0 | 0.0 | 0.0 | 0.00 | 0.05 | 0.05 | 64 | 1028.3 |
| 20260830110005 | 13 | 0 | 0.0 | 0.0 | 0.00 | 0.05 | 0.05 | 63 | 1028.4 |
| 20260830105405 | 13 | 0 | 0.0 | 0.0 | 0.00 | 0.05 | 0.05 | 63 | 1028.5 |
| 20260830104805 | 13 | 0 | 0.0 | 0.0 | 0.00 | 0.05 | 0.05 | 62 | 1028.5 |
| 20260830104205 | 13 | 0 | 0.0 | 0.0 | 0.00 | 0.05 | 0.05 | 62 | 1028.5 |
| 20260830103605 | 13 | 0 | 0.0 | 0.0 | 0.00 | 0.05 | 0.05 | 62 | 1028.5 |
| 20260830103005 | 13 | 0 | 0.0 | 0.0 | 0.00 | 0.05 | 0.05 | 62 | 1028.4 |
| 20260830102405 | 13 | 0 | 0.0 | 0.0 | 0.00 | 0.05 | 0.05 | 61 | 1028.3 |
| 20260830101805 | 14 | 0 | 0.0 | 0.0 | 0.00 | 0.05 | 0.05 | 60 | 1028.4 |
| 20260830101205 | 14 | 0 | 0.0 | 0.0 | 0.00 | 0.05 | 0.05 | 60 | 1028.1 |
| 20260830100605 | 14 | 0 | 0.0 | 0.0 | 0.00 | 0.05 | 0.05 | 59 | 1028.0 |
| 20260830100005 | 15 | 0 | 0.0 | 0.0 | 0.00 | 0.05 | 0.05 | 59 | 1028.0 |
| 20260830094805 | 15 | 0 | 0.0 | 0.0 | 0.00 | 0.05 | 0.05 | 59 | 1027.9 |
| 20260830094205 | 15 | 0 | 0.0 | 0.0 | 0.00 | 0.05 | 0.05 | 58 | 1027.8 |
| 20260830093605 | 16 | 0 | 0.0 | 0.0 | 0.00 | 0.05 | 0.05 | 58 | 1027.7 |
| 20260830093005 | 16 | 0 | 0.0 | 0.0 | 0.00 | 0.05 | 0.05 | 57 | 1027.7 |
| 20260830092405 | 16 | 0 | 0.0 | 0.0 | 0.00 | 0.05 | 0.05 | 56 | 1027.6 |
| 20260830091805 | 16 | 0 | 0.0 | 0.0 | 0.00 | 0.05 | 0.05 | 55 | 1027.6 |
| 20260830091205 | 17 | 0 | 0.0 | 0.0 | 0.00 | 0.05 | 0.05 | 54 | 1027.6 |
| 20260830090605 | 17 | 0 | 0.0 | 0.0 | 0.00 | 0.05 | 0.05 | 53 | 1027.6 |
| 20260830090005 | 17 | 0 | 0.0 | 0.0 | 0.00 | 0.05 | 0.05 | 53 | 1027.5 |
| 20260830084205 | 18 | 0 | 0.0 | 0.0 | 0.00 | 0.05 | 0.05 | 51 | 1027.4 |
| 20260830083604 | 18 | 0 | 0.0 | 0.0 | 0.00 | 0.05 | 0.05 | 50 | 1027.2 |
| 20260830083006 | 18 | 0 | 0.0 | 0.0 | 0.00 | 0.05 | 0.05 | 48 | 1027.0 |
| 20260830081805 | 19 | 0 | 0.0 | 0.0 | 0.00 | 0.05 | 0.05 | 47 | 1026.8 |
| 20260830081204 | 19 | 0 | 0.0 | 0.0 | 0.00 | 0.05 | 0.05 | 45 | 1026.7 |
| 20260830080605 | 19 | 0 | 0.0 | 0.0 | 0.00 | 0.05 | 0.05 | 44 | 1026.6 |
| 20260830080005 | 20 | 0 | 0.0 | 0.0 | 0.00 | 0.05 | 0.05 | 43 | 1026.6 |
| 20260830075405 | 20 | 0 | 1.6 | 0.0 | 0.00 | 0.05 | 0.05 | 41 | 1026.5 |
| 20260830074806 | 20 | 99 | 1.6 | 4.8 | 0.00 | 0.05 | 0.05 | 40 | 1026.5 |
| 20260830074205 | 20 | 102 | 1.6 | 6.4 | 0.00 | 0.05 | 0.05 | 39 | 1026.4 |
| 20260830073605 | 20 | 105 | 1.6 | 6.4 | 0.00 | 0.05 | 0.05 | 38 | 1026.4 |
| 20260830073005 | 21 | 102 | 3.2 | 6.4 | 0.00 | 0.05 | 0.05 | 38 | 1026.4 |
| 20260830072405 | 21 | 108 | 3.2 | 12.9 | 0.00 | 0.05 | 0.05 | 38 | 1026.3 |
| 20260830071205 | 21 | 109 | 3.2 | 9.7 | 0.00 | 0.05 | 0.05 | 35 | 1026.3 |
| 20260830070604 | 22 | 113 | 3.2 | 8.0 | 0.00 | 0.05 | 0.05 | 35 | 1026.4 |
| 20260830070005 | 22 | 114 | 4.8 | 9.7 | 0.00 | 0.05 | 0.05 | 34 | 1026.3 |
| 20260830065405 | 22 | 115 | 4.8 | 14.5 | 0.00 | 0.05 | 0.05 | 33 | 1026.2 |
| 20260830064805 | 22 | 114 | 4.8 | 14.5 | 0.00 | 0.05 | 0.05 | 32 | 1026.3 |
| 20260830064204 | 23 | 109 | 4.8 | 8.0 | 0.00 | 0.05 | 0.05 | 32 | 1026.2 |
| 20260830063605 | 23 | 102 | 6.4 | 12.9 | 0.00 | 0.05 | 0.05 | 33 | 1026.2 |
| 20260830062405 | 24 | 112 | 6.4 | 19.3 | 0.00 | 0.05 | 0.05 | 33 | 1026.2 |
| 20260830061805 | 24 | 97 | 6.4 | 16.1 | 0.00 | 0.05 | 0.05 | 34 | 1026.1 |
| 20260830061206 | 25 | 96 | 4.8 | 19.3 | 0.00 | 0.05 | 0.05 | 34 | 1026.1 |
| 20260830060604 | 25 | 102 | 4.8 | 16.1 | 0.00 | 0.05 | 0.05 | 34 | 1026.1 |
| 20260830055404 | 25 | 112 | 4.8 | 14.5 | 0.00 | 0.05 | 0.05 | 32 | 1026.2 |
| 20260830054805 | 26 | 93 | 6.4 | 16.1 | 0.00 | 0.05 | 0.05 | 32 | 1026.1 |